Regional Weather Roundup
Issued by NWS

Home | Current Version | Previous Version | Graphics & Text | Print | Product List | Glossary On
Versions: 1 2 3 4 5 6 7 8 9 10 11 12 13 14 15 16 17 18 19 20 21 22 23 24 25 26 27 28
000
ASUS45 KBOU 220810
RWRCO

WEATHER ROUNDUP FOR COLORADO
NATIONAL WEATHER SERVICE DENVER/BOULDER CO
100 AM MST WED NOV 22 2017

NOTE: "FAIR" INDICATES FEW OR NO CLOUDS BELOW 12000 FEET WITH NO
SIGNIFICANT WEATHER AND/OR OBSTRUCTIONS TO VISIBILITY.

COZ001>005-013-030-031-220900-
...NORTHWEST COLORADO...

CITY           SKY/WX    TMP DP  RH WIND       PRES   REMARKS
CRAIG          FAIR      34  31  88 SW6       30.42S WCI  29
HAYDEN         MOCLDY    38  34  85 E8        30.43F
MEEKER         FAIR      35  31  85 NE6       30.43R WCI  30
RABBIT EARS PA CLOUDY   N/A N/A N/A W8G18     30.49S HAZE
STEAMBOAT SPGS CLOUDY    34  33  97 CALM      30.43S
WALDEN         CLOUDY    34  28  80 CALM      30.43S
$$

COZ006>008-011-220900-
...WEST CENTRAL VALLEYS...

CITY           SKY/WX    TMP DP  RH WIND       PRES   REMARKS
GRAND JUNCTION FAIR      38  27  64 CALM      30.42R
MONTROSE       FAIR      34  29  82 S7        30.45F WCI  28
EAGLE          MOCLDY    32  28  85 W3        30.47F
RIFLE          FAIR      32  30  92 S3        30.44S
DELTA          FAIR      37  26  64 CALM      30.44S
NUCLA          FAIR      37  28  70 SE3       30.47R
$$

COZ017>023-064>068-220900-
...SOUTHWEST COLORADO...

CITY           SKY/WX    TMP DP  RH WIND       PRES   REMARKS
DURANGO        FAIR      26  17  68 E5        30.39S WCI  20
CORTEZ         FAIR      30  24  78 E9        30.39S WCI  22
PAGOSA SPRINGS FAIR      33  22  66 CALM      30.42R
TELLURIDE      FAIR      34  24  66 E3        30.52S
WOLF CREEK PAS CLOUDY    32  12  43 CALM      30.60S
$$

COZ009-010-012-014-032>034-037-058>063-220900-
...CENTRAL COLORADO...

CITY           SKY/WX    TMP DP  RH WIND       PRES   REMARKS
ASPEN          FAIR      33  27  78 SW7       30.44F WCI  27
BUENA VISTA    FAIR      41  25  51 NW21G30   30.39F
COPPER MTN     FAIR      28  23  80 MISG      30.53F
BERTHOUD PASS  CLOUDY    21  10  63 N24G37    30.48F WCI   4
COTTONWOOD PAS FAIR      41  23  48 W9G21     30.45R
GUNNISON       FAIR      24  22  91 CALM      30.48S
KREMMLING      FAIR      37  34  87 CALM      30.44F
LEADVILLE      FAIR      26  22  84 CALM      30.46F
MONARCH PASS   FAIR      25  23  93 SW18G24   30.63R WCI  11
SALIDA         FAIR      41  26  54 N9        30.46F
SUNLIGHT       MOCLDY    30  27  86 W5        30.57R WCI  25
WILKERSON PASS MOCLDY    34  12  40 NW10G23   30.47S WCI  26
$$

COZ069>075-220900-
...SAN LUIS VALLEY/SANGRE DE CRISTO MOUNTAINS...

CITY           SKY/WX    TMP DP  RH WIND       PRES   REMARKS
ALAMOSA        FAIR      25  19  78 S3        30.41F
DEL NORTE      FAIR      36  18  48 NW6       30.43R
LA VETA PASS   FAIR      32  21  64 SW33G43     N/A  WCI  17
SAGUACHE       FAIR      36  28  75 SW6       30.43S
$$

COZ035-036-038>040-220900-
...NORTHERN COLORADO FRONT RANGE...

CITY           SKY/WX    TMP DP  RH WIND       PRES   REMARKS
DENVER INTL AP MOCLDY    35  30  82 SW7       30.24F WCI  29
DMNS CITY PARK   N/A     36  33  90 N5        30.24F
AURORA         PTCLDY    40  32  71 S8        30.25F
FRONT RANGE AP FAIR      37  32  82 SW5       30.25F
ERIE MUNI ARPT FAIR      32  30  93 CALM      30.30F
BOULDER MUN AP FAIR      36  34  93 CALM      30.24F
CENTENNIAL     FAIR      40  30  67 SE8       30.25F
BROOMFIELD     FAIR      36  32  87 CALM      30.25S
FORT COLLINS   FAIR      33  32  96 N5        30.25F WCI  29
LONGMONT       FAIR      34  32  91 W3        30.26F
$$

COZ041-046-047-076>085-087-088-220900-
...PIKES PEAK/PALMER DIVIDE AND SOUTHERN FOOTHILLS...

CITY           SKY/WX    TMP DP  RH WIND       PRES   REMARKS
COLO. SPRINGS  MOCLDY    30  26  85 N7        30.32F WCI  23
A. F. ACADEMY  FAIR      27  26  96 N7        30.31F WCI  20
SCHRIEVER AFB  FAIR      32  27  79 N3        30.32F
CHEYENNE MTN   MOCLDY    35  31  85 N8        30.25F WCI  28
ELLICOTT         N/A    N/A N/A N/A CALM      30.30F
FALCON         FAIR      31  27  82 W6        30.32F WCI  26
FORT CARSON    FAIR      32  29  89 N8        30.30F WCI  24
LIMON          FAIR      30  25  81 E6        30.30F WCI  24
MONUMENT HILL  FAIR      32  28  86 S9        30.31F WCI  24
CANON CITY     FAIR      37  32  81 SE3       30.29F
WALSENBURG     FAIR      32  30  93 W3        30.31F
TRINIDAD       FAIR      38  29  70 SW15      30.32F
$$

COZ042>045-048>051-090-091-220900-
...NORTHEAST COLORADO...

CITY           SKY/WX    TMP DP  RH WIND       PRES   REMARKS
GREELEY ARPT   FAIR      31  28  89 W5        30.26F WCI  26
AKRON          FAIR      38  27  64 SW16      30.24F
BURLINGTON     FAIR      29  23  78 SW12      30.29F WCI  19
WRAY           NOT AVBL
YUMA           FAIR      32  28  86 SW8       30.24F WCI  25
STERLING       FAIR      30  27  86 S6        30.23F WCI  24
HOLYOKE        FAIR      34  28  80 SW6       30.25F WCI  29
FORT MORGAN    FAIR      30  23  75 SW6       30.24F WCI  24
$$

COZ086-089-092>099-220900-
...SOUTHEAST COLORADO...

CITY           SKY/WX    TMP DP  RH WIND       PRES   REMARKS
PUEBLO         FAIR      31  27  85 W3        30.30F
LA JUNTA       FAIR      32  27  81 W7        30.31F WCI  26
LAMAR          FAIR      27  21  78 E3        30.32F
SPRINGFIELD      N/A     26  24  92 SW7       30.34F WCI  18
$$




USA.gov is the U.S. government's official web portal to all federal, state and local government web resources and services.